Location: Saint Louis
(38.6272°N, 90.1978°W)
Time: 00:54:26
(UTC-05:00)

ISS - Pass Details

Date: 15 November 2013
Orbit: 401 x 404 km, 51.6° (Epoch: 28 July)

Event Time Altitude Azimuth Distance (km) Brightness Sun altitude
Exits shadow 04:22:27 17° 60° (ENE) 1,123 -0.5 -27.5°
Drops below altitude 10° 04:23:17 10° 57° (ENE) 1,455 0.1 -27.3°
Enters shadow 05:21:59 -64° 236° (SW) 11,915 4.0 -15.9°
